Location: Saint Peter Port
(49.4500°N, 2.5330°W)
Time: 13:05:03
(UTC+01:00)

Cosmos 2242 Rocket - Visible Passes

Search period start: 28 March 2017 00:00
Search period end: 07 April 2017 00:00
Orbit: 620 x 651 km, 82.5° (Epoch: 26 March)

Date Brightness Start Highest point End Pass type
(mag) Time Alt. Az. Time Alt. Az. Time Alt. Az.
28 Mar 6.5 00:25:40 12° NNE 00:25:40 12° NNE 00:26:05 10° NNE visible
28 Mar 6.3 02:03:09 15° NNW 02:03:09 15° NNW 02:04:10 10° N visible
29 Mar 6.3 00:47:50 16° NNE 00:47:50 16° NNE 00:48:49 10° NNE visible
29 Mar 6.4 02:25:19 12° NNW 02:25:19 12° NNW 02:25:55 10° NNW visible
30 Mar 6.2 01:10:00 19° N 01:10:00 19° N 01:11:18 10° N visible
30 Mar 6.3 23:54:40 13° NNE 23:54:40 13° NNE 23:55:13 10° NNE visible
31 Mar 6.2 01:32:08 18° NNW 01:32:08 18° NNW 01:33:32 10° N visible
01 Apr 6.1 00:16:47 18° NNE 00:16:47 18° NNE 00:18:02 10° NNE visible
01 Apr 6.3 01:54:16 14° NNW 01:54:16 14° NNW 01:55:26 10° NNW visible
02 Apr 5.9 00:38:55 22° N 00:38:55 22° N 00:40:34 10° N visible
02 Apr 6.1 23:23:33 14° NE 23:23:33 14° NE 23:24:18 10° NNE visible
03 Apr 5.9 01:01:02 22° NNW 01:01:02 22° NNW 01:02:53 10° N visible
03 Apr 5.8 23:45:39 21° NNE 23:45:39 21° NNE 23:47:13 10° NNE visible
04 Apr 6.1 01:23:07 18° NW 01:23:07 18° NW 01:24:52 10° NNW visible
05 Apr 5.5 00:07:43 27° N 00:07:43 27° N 00:09:50 10° N visible
05 Apr 6.4 01:45:11 12° NW 01:45:11 12° NW 01:46:11 10° NW visible
05 Apr 5.9 22:52:18 15° NE 22:52:18 15° NE 22:53:22 10° NE visible
06 Apr 5.5 00:29:46 28° NNW 00:29:46 28° NNW 00:32:11 10° N visible
06 Apr 5.4 23:14:21 24° NE 23:14:21 24° NE 23:16:23 10° NNE visible
